TimeCDT,TemperatureF,Dew PointF,Humidity,Sea Level PressureIn,VisibilityMPH,Wind Direction,Wind SpeedMPH,Gust SpeedMPH,PrecipitationIn,Events,Conditions,WindDirDegrees,DateUTC
12:54 AM,46.0,43.0,89,30.12,10.0,Calm,Calm,-,N/A,,Clear,0,2012-09-29 05:54:00
1:54 AM,45.0,41.0,86,30.12,10.0,Calm,Calm,-,N/A,,Clear,0,2012-09-29 06:54:00
2:54 AM,44.1,41.0,89,30.11,10.0,Calm,Calm,-,N/A,,Clear,0,2012-09-29 07:54:00
3:54 AM,43.0,39.9,89,30.11,10.0,Calm,Calm,-,N/A,,Clear,0,2012-09-29 08:54:00
4:54 AM,41.0,39.0,93,30.10,10.0,Calm,Calm,-,N/A,,Clear,0,2012-09-29 09:54:00
5:54 AM,39.9,37.9,93,30.11,10.0,Calm,Calm,-,N/A,,Clear,0,2012-09-29 10:54:00
6:54 AM,39.0,37.9,96,30.11,10.0,Calm,Calm,-,N/A,,Clear,0,2012-09-29 11:54:00
7:54 AM,44.1,41.0,89,30.11,10.0,Calm,Calm,-,N/A,,Clear,0,2012-09-29 12:54:00
8:54 AM,48.9,42.1,77,30.12,10.0,WNW,4.6,-,N/A,,Clear,300,2012-09-29 13:54:00
9:54 AM,57.9,42.1,56,30.11,10.0,NW,3.5,-,N/A,,Clear,310,2012-09-29 14:54:00
10:54 AM,66.0,41.0,40,30.09,10.0,WNW,5.8,-,N/A,,Clear,290,2012-09-29 15:54:00
11:54 AM,71.1,39.0,31,30.07,10.0,North,9.2,-,N/A,,Clear,350,2012-09-29 16:54:00
12:54 PM,73.0,37.9,28,30.07,10.0,North,9.2,-,N/A,,Clear,360,2012-09-29 17:54:00
1:54 PM,75.0,37.9,26,30.04,10.0,North,9.2,-,N/A,,Clear,10,2012-09-29 18:54:00
2:54 PM,75.0,35.1,23,30.03,10.0,NNW,10.4,-,N/A,,Clear,340,2012-09-29 19:54:00
3:54 PM,75.0,34.0,22,30.02,10.0,Variable,4.6,-,N/A,,Clear,0,2012-09-29 20:54:00
4:54 PM,73.9,30.0,20,30.02,10.0,North,9.2,-,N/A,,Clear,360,2012-09-29 21:54:00
5:54 PM,72.0,28.0,20,30.02,10.0,North,5.8,-,N/A,,Clear,10,2012-09-29 22:54:00
6:54 PM,66.9,30.0,25,30.03,10.0,NNE,4.6,-,N/A,,Clear,30,2012-09-29 23:54:00
7:54 PM,63.0,30.0,29,30.04,10.0,NNE,4.6,-,N/A,,Clear,30,2012-09-30 00:54:00
8:54 PM,57.9,32.0,37,30.04,10.0,NE,3.5,-,N/A,,Clear,50,2012-09-30 01:54:00
9:54 PM,54.0,34.0,47,30.06,10.0,East,6.9,-,N/A,,Clear,90,2012-09-30 02:54:00
10:54 PM,52.0,37.9,59,30.06,10.0,East,3.5,-,N/A,,Clear,90,2012-09-30 03:54:00
11:54 PM,50.0,39.0,66,30.07,10.0,Calm,Calm,-,N/A,,Clear,0,2012-09-30 04:54:00